Location: McFarlands Corners
(41.4117°N, 81.3382°W)
Time: 08:45:07
(UTC+00:00)

Vanguard 1 Rocket - Pass Details

Date: 19 February 2026
Orbit: 653 x 4214 km, 34.3° (Epoch: 12 March)

Event Time Altitude Azimuth Distance (km) Brightness Sun altitude
Rises 19:59:27 0° 256° (WSW) 4,502 11.7 28.4°
Reaches altitude 10° 20:01:51 10° 253° (WSW) 3,835 11.6 28.1°
Maximum altitude 20:12:27 66° 174° (S) 2,657 10.5 26.8°
Drops below altitude 10° 20:33:05 10° 99° (E) 6,932 11.6 24.0°
Sets 20:39:18 0° 98° (E) 8,255 11.9 23.2°
